{"data":{"norad_id":68256,"epoch":"2026-05-24T20:44:34.732896Z","epoch_age_seconds":80003,"freshness":"FRESH","line1":"1 68256U 26054AA  26144.86429089  .00021759  00000+0  74402-3 0  9990","line2":"2 68256  53.1574 303.1360 0000716 124.5200 235.5868 15.30225881 10652","mean_motion":15.30225881,"eccentricity":7.16e-5,"inclination_deg":53.1574,"raan_deg":303.136,"arg_perigee_deg":124.52,"mean_anomaly_deg":235.5868,"bstar":0.00074402,"rev_number":1065,"period_min":94.103754084917,"perigee_km":474.64710003227,"apogee_km":475.62848898285,"semimajor_km":6853.2747945076,"source":"CELESTRAK","updated_at":"2026-05-25T13:38:21.888172Z"}}